Location: Dead Woman Crossing
(43.5369°N, 106.3228°W)
Time: 12:24:59
(UTC+00:00)

ZACube-1 - Pass Details

Date: 01 July 2022
Orbit: 582 x 661 km, 97.6° (Epoch: 14 August)

Event Time Altitude Azimuth Distance (km) Brightness Sun altitude
Rises 10:17:42 0° 23° (NNE) 2,953 ? -10.6°
Reaches altitude 10° 10:20:08 10° 34° (NNE) 2,051 ? -10.3°
Maximum altitude 10:24:05 30° 96° (E) 1,166 ? -9.8°
Drops below altitude 10° 10:28:04 10° 158° (SSE) 2,065 ? -9.3°
Sets 10:30:31 0° 168° (SSE) 2,977 ? -8.9°
